Location: Asheville, NC
(35.6000°N, 82.5500°W)
Time: 13:49:09
(UTC-04:00)

Oscar 11 - Pass Details

Date: 10 March 2018
Orbit: 613 x 627 km, 97.6° (Epoch: 18 June)

Event Time Altitude Azimuth Distance (km) Brightness Sun altitude
Exits shadow 21:28:29 10° 245° (WSW) 2,001 10.1 -35.6°
Reaches altitude 10° 21:28:44 10° 248° (WSW) 1,964 10.1 -35.6°
Maximum altitude 21:30:11 12° 268° (W) 1,866 10.1 -35.9°
Drops below altitude 10° 21:31:39 10° 288° (WNW) 1,968 10.4 -36.1°
Sets 21:35:22 0° 322° (NW) 2,880 11.3 -36.8°
